CAPE
21 18 11 13 0 1 0 3 5 3 2 0 0 0 0 0 0 0 0 0 0 0 0 0 0 0 0 0 0 0 0 0 0 0 0 0 0 0 0 0 0 0 0 0 0 0 0 0 0 0 0 0 0 0
17 19 14 10 3 1 1 2 3 3 3 0 0 0 0 0 0 0 0 0 0 0 0 0 0 0 0 0 0 0 0 0 0 0 0 0 0 0 0 0 0 0 0 0 0 0 0 0 0 0 0 0 0 0
11 10 10 9 6 0 1 2 3 4 1 1 0 0 0 0 0 0 0 0 0 0 0 0 0 0 0 0 0 0 0 0 0 0 0 0 0 0 0 0 0 0 0 0 0 0 0 0 0 0 0 0 0 0
16 14 14 10 6 4 2 2 1 3 2 3 0 0 0 0 0 0 0 0 0 0 0 0 0 0 0 0 0 0 0 0 0 0 0 0 0 0 0 0 0 0 0 0 0 0 0 0 0 0 0 0 0 0
25 13 19 24 11 4 5 1 2 1 3 3 0 0 0 0 0 0 0 0 0 0 0 0 0 0 0 0 0 0 0 0 0 0 0 0 0 0 0 0 0 0 0 0 0 0 0 0 0 0 0 0 0 0
5 13 13 20 16 13 5 0 3 0 4 3 0 0 0 0 0 0 0 0 0 0 0 0 0 0 0 0 0 0 0 0 0 0 0 0 0 0 0 0 0 0 0 0 0 0 0 0 0 0 0 0 0 0
8 10 19 14 19 10 14 4 0 0 5 3 0 0 0 0 0 0 0 0 0 0 0 0 0 0 0 0 0 0 0 0 0 0 0 0 0 0 0 0 0 0 0 0 0 0 0 0 0 0 0 0 0 0
11 10 13 9 12 20 11 11 0 0 2 4 1 0 0 0 0 0 0 0 0 0 0 0 0 0 0 0 0 0 0 0 0 0 0 0 0 0 0 0 0 0 0 0 0 0 0 0 0 0 0 0 0 0
12 11 11 14 12 10 19 4 2 1 2 4 2 0 0 0 0 0 0 0 0 0 0 0 0 0 0 0 0 0 0 0 0 0 0 0 0 0 0 0 0 0 0 0 0 0 0 0 0 0 0 0 0 0
11 16 17 20 9 12 19 4 3 3 3 1 0 0 0 0 0 0 0 0 0 0 0 0 0 0 0 0 0 0 0 0 0 0 0 0 0 0 0 0 0 0 0 0 0 0 0 0 0 0 0 0 0 0
16 17 27 9 7 8 18 5 5 9 4 0 0 0 0 0 0 0 0 0 0 0 0 0 0 0 0 0 0 0 0 0 0 0 0 0 0 0 0 0 0 0 0 0 0 0 0 0 0 0 0 0 0 0
14 22 27 3 6 1 26 15 26 19 0 0 0 0 0 0 0 0 0 0 0 0 0 0 0 0 0 0 0 0 0 0 0 0 0 0 0 0 0 0 0 0 0 0 0 0 0 0 0 0 0 0 0 0
35 36 25 3 2 5 28 16 38 41 0 0 0 0 0 0 0 0 0 0 0 0 0 0 0 0 0 0 0 0 0 0 0 0 0 0 0 0 0 0 0 0 0 0 0 0 0 0 0 0 0 0 0 0
18 47 21 12 5 23 16 36 9 8 0 2 1 0 0 0 0 0 0 0 0 0 0 0 0 0 0 0 0 0 0 0 0 0 0 0 0 0 0 0 0 0 0 0 0 0 0 0 0 0 0 0 0 0
10 23 12 2 2 41 34 28 30 10 4 3 3 0 0 0 0 0 0 0 0 0 0 0 0 0 0 0 0 0 0 0 0 0 0 0 0 0 0 0 0 0 0 0 0 0 0 0 0 0 0 0 0 0
6 4 0 6 58 43 33 40 34 21 18 5 4 2 0 0 0 0 0 0 0 0 0 0 0 0 0 0 0 0 0 0 0 0 0 0 0 0 0 0 0 0 0 0 0 0 0 0 0 0 0 0 0 0
17 0 7 4 10 1 12 10 15 11 8 1 2 0 0 0 0 0 0 0 0 0 0 0 0 0 0 0 0 0 0 0 0 0 0 0 0 0 0 0 0 0 0 0 0 0 0 0 0 0 0 0 0 0
4 3 7 7 12 2 29 5 24 0 0 0 0 0 0 0 0 0 0 0 0 0 0 0 0 0 0 0 0 0 0 0 0 0 0 0 0 0 0 0 0 0 0 0 0 0 0 0 0 0 0 0 0 0
6 3 7 16 21 1 0 2 0 0 0 0 0 0 0 0 0 0 0 0 0 0 0 0 0 0 0 0 0 0 0 0 0 0 0 0 0 0 0 0 0 0 0 0 0 0 0 0 0 0 0 0 0 0
11 8 11 17 21 0 0 0 0 0 0 0 0 0 0 0 0 0 0 0 0 0 0 0 0 0 0 0 0 0 0 0 0 0 0 0 0 0 0 0 0 0 0 0 0 0 0 0 0 0 0 0 0 0
6 0 2 17 0 0 0 0 0 0 0 9 0 0 0 0 0 0 0 0 0 0 0 0 0 0 0 0 0 0 0 0 0 0 0 0 0 0 0 0 0 0 0 0 0 0 0 0 0 0 0 0 0 0
5 8 23 1 0 0 0 0 0 0 0 0 0 0 0 0 0 0 0 0 0 0 0 0 0 0 0 0 0 0 0 0 0 0 0 0 0 0 0 0 0 0 0 0 0 0 0 0 0 0 0 0 0 0
27 9 2 0 0 0 0 0 0 0 0 0 0 0 0 0 0 0 0 0 0 0 0 0 0 0 0 0 0 0 0 0 0 0 0 0 0 0 0 0 0 0 0 0 0 0 0 0 0 0 0 0 0 0
6 2 0 0 0 0 0 0 1 0 0 0 0 0 0 0 0 0 0 0 0 0 0 0 0 0 0 0 0 0 0 0 0 0 0 0 0 0 0 0 0 0 0 0 0 0 0 0 0 0 0 0 0 0
4 0 0 0 0 0 0 0 0 0 0 0 0 0 1 1 0 0 0 0 0 0 0 0 0 0 0 0 0 0 0 0 0 0 0 0 0 0 0 0 0 0 0 0 0 0 0 0 0 0 0 0 0 0
0 0 0 0 0 0 0 0 0 0 0 0 0 0 0 0 0 0 0 0 0 0 0 0 0 0 0 0 0 0 0 0 0 0 0 0 0 0 0 0 0 0 0 0 0 0 0 0 0 0 0 0 0 0
0 0 0 0 0 0 0 0 0 0 0 0 0 0 0 0 0 0 0 0 0 0 0 0 0 0 0 0 0 0 0 0 0 0 0 0 0 0 0 0 0 0 0 0 0 0 0 0 0 0 0 0 0 0
5 0 0 0 0 0 0 0 0 0 0 0 1 0 0 0 0 0 0 0 0 0 0 0 0 0 0 0 0 0 0 0 0 0 0 0 0 0 0 0 0 0 0 0 0 0 0 0 0 0 0 0 0 0
0 0 0 0 0 0 0 0 0 0 0 0 0 0 0 0 0 0 0 0 0 0 0 0 0 0 0 0 0 0 0 0 0 0 0 0 0 0 0 0 0 0 0 0 0 0 0 0 0 0 0 0 0 0
0 0 0 0 0 0 0 0 0 0 0 0 0 0 0 0 0 0 0 0 0 0 0 0 0 0 0 0 0 0 0 0 0 0 0 0 0 0 0 0 0 0 0 0 0 0 0 0 0 0 0 0 0 0
0 0 0 0 0 0 0 0 0 0 0 0 0 0 0 0 0 0 0 0 0 0 0 0 0 0 0 0 0 0 0 0 0 0 0 0 0 0 0 0 0 0 0 0 0 0 0 0 0 0 0 0 0 0
0 0 0 0 0 0 0 0 0 0 0 0 0 0 0 0 0 0 0 0 0 0 0 0 0 0 0 0 0 0 0 0 0 0 0 0 0 0 0 0 0 0 0 0 0 0 0 0 0 0 0 0 0 0
0 0 0 0 0 0 0 0 0 0 0 0 0 0 0 0 0 0 0 0 0 0 0 0 0 0 0 0 0 0 0 0 0 0 0 0 0 0 0 0 0 0 0 0 0 0 0 0 0 0 0 0 0 0
CIN
0 -1 0 0 0 0 0 0 0 0 0 0 0 0 0 0 0 0 0 0 0 0 0 0 0 0 0 0 0 0 0 0 0 0 0 0 0 0 0 0 0 0 0 0 0 0 0 0 0 0 0 0 0 0
-1 0 0 0 0 0 0 0 0 0 0 0 0 0 0 0 0 0 0 0 0 0 0 0 0 0 0 0 0 0 0 0 0 0 0 0 0 0 0 0 0 0 0 0 0 0 0 0 0 0 0 0 0 0
0 0 0 0 0 0 0 0 0 0 0 0 0 0 0 0 0 0 0 0 0 0 0 0 0 0 0 0 0 0 0 0 0 0 0 0 0 0 0 0 0 0 0 0 0 0 0 0 0 0 0 0 0 0
0 0 0 0 0 0 0 0 0 0 0 0 0 0 0 0 0 0 0 0 0 0 0 0 0 0 0 0 0 0 0 0 0 0 0 0 0 0 0 0 0 0 0 0 0 0 0 0 0 0 0 0 0 0
0 0 0 0 0 0 0 0 0 0 0 0 0 0 0 0 0 0 0 0 0 0 0 0 0 0 0 0 0 0 0 0 0 0 0 0 0 0 0 0 0 0 0 0 0 0 0 0 0 0 0 0 0 0
0 -1 0 0 0 0 0 0 0 0 0 0 0 0 0 0 0 0 0 0 0 0 0 0 0 0 0 0 0 0 0 0 0 0 0 0 0 0 0 0 0 0 0 0 0 0 0 0 0 0 0 0 0 0
-1 -1 0 0 0 0 0 0 0 0 0 0 0 0 0 0 0 0 0 0 0 0 0 0 0 0 0 0 0 0 0 0 0 0 0 0 0 0 0 0 0 0 0 0 0 0 0 0 0 0 0 0 0 0
0 -1 0 0 0 0 0 0 0 0 0 0 0 0 0 0 0 0 0 0 0 0 0 0 0 0 0 0 0 0 0 0 0 0 0 0 0 0 0 0 0 0 0 0 0 0 0 0 0 0 0 0 0 0
-1 0 0 -1 0 0 0 0 0 0 0 0 0 0 0 0 0 0 0 0 0 0 0 0 0 0 0 0 0 0 0 0 0 0 0 0 0 0 0 0 0 0 0 0 0 0 0 0 0 0 0 0 0 0
-1 0 0 0 0 0 0 0 0 0 0 0 0 0 0 0 0 0 0 0 0 0 0 0 0 0 0 0 0 0 0 0 0 0 0 0 0 0 0 0 0 0 0 0 0 0 0 0 0 0 0 0 0 0
0 0 0 0 0 0 0 0 0 0 0 0 0 0 0 0 0 0 0 0 0 0 0 0 0 0 0 0 0 0 0 0 0 0 0 0 0 0 0 0 0 0 0 0 0 0 0 0 0 0 0 0 0 0
-3 0 -1 -4 0 0 0 0 0 0 0 0 0 0 0 0 0 0 0 0 0 0 0 0 0 0 0 0 0 0 0 0 0 0 0 0 0 0 0 0 0 0 0 0 0 0 0 0 0 0 0 0 0 0
-1 0 0 0 0 0 0 -1 0 -2 0 0 0 0 0 0 0 0 0 0 0 0 0 0 0 0 0 0 0 0 0 0 0 0 0 0 0 0 0 0 0 0 0 0 0 0 0 0 0 0 0 0 0 0
-1 -1 0 0 0 -1 -2 -1 -5 -1 0 0 0 0 0 0 0 0 0 0 0 0 0 0 0 0 0 0 0 0 0 0 0 0 0 0 0 0 0 0 0 0 0 0 0 0 0 0 0 0 0 0 0 0
0 -1 0 0 0 0 -3 -5 -5 -1 -1 0 0 0 0 0 0 0 0 0 0 0 0 0 0 0 0 0 0 0 0 0 0 0 0 0 0 0 0 0 0 0 0 0 0 0 0 0 0 0 0 0 0 0
-1 -1 0 0 -1 -1 -2 -4 -1 0 -2 0 0 0 0 0 0 0 0 0 0 0 0 0 0 0 0 0 0 0 0 0 0 0 0 0 0 0 0 0 0 0 0 0 0 0 0 0 0 0 0 0 0 0
0 0 0 0 0 0 0 0 -4 0 0 0 0 0 0 0 0 0 0 0 0 0 0 0 0 0 0 0 0 0 0 0 0 0 0 0 0 0 0 0 0 0 0 0 0 0 0 0 0 0 0 0 0 0
-4 -4 -2 0 0 0 0 -2 -1 0 0 0 0 0 0 0 0 0 0 0 0 0 0 0 0 0 0 0 0 0 0 0 0 0 0 0 0 0 0 0 0 0 0 0 0 0 0 0 0 0 0 0 0 0
-3 -1 -1 0 0 0 0 -4 -2 -2 0 0 0 0 0 0 0 0 0 0 0 0 0 0 0 0 0 0 0 0 0 0 0 0 0 0 0 0 0 0 0 0 0 0 0 0 0 0 0 0 0 0 0 0
0 0 0 0 0 0 0 0 0 0 0 0 0 0 0 0 0 0 0 0 0 0 0 0 0 0 0 0 0 0 0 0 0 0 0 0 0 0 0 0 0 0 0 0 0 0 0 0 0 0 0 0 0 0
-3 0 -3 0 0 0 0 0 0 0 0 -13 0 0 0 0 0 0 0 0 0 0 0 0 0 0 0 0 0 0 0 0 0 0 0 0 0 0 0 0 0 0 0 0 0 0 0 0 0 0 0 0 0 0
-2 -1 -2 0 -2 0 0 0 0 0 0 0 0 0 0 0 0 0 0 0 0 0 0 0 0 0 0 0 0 0 0 0 0 0 0 0 0 0 0 0 0 0 0 0 0 0 0 0 0 0 0 0 0 0
0 0 -5 0 0 0 0 0 0 0 0 0 0 0 0 0 0 0 0 0 0 0 0 0 0 0 0 0 0 0 0 0 0 0 0 0 0 0 0 0 0 0 0 0 0 0 0 0 0 0 0 0 0 0
0 -1 -2 0 0 0 0 0 0 0 0 0 0 0 0 0 0 0 0 0 0 0 0 0 0 0 0 0 0 0 0 0 0 0 0 0 0 0 0 0 0 0 0 0 0 0 0 0 0 0 0 0 0 0
-1 0 0 0 0 0 0 0 0 0 0 0 0 0 0 0 0 0 0 0 0 0 0 0 0 0 0 0 0 0 0 0 0 0 0 0 0 0 0 0 0 0 0 0 0 0 0 0 0 0 0 0 0 0
0 0 0 0 0 0 0 0 0 0 0 0 0 0 0 0 0 0 0 0 0 0 0 0 0 0 0 0 0 0 0 0 0 0 0 0 0 0 0 0 0 0 0 0 0 0 0 0 0 0 0 0 0 0
0 0 0 0 0 0 0 0 0 0 0 0 0 0 0 0 0 0 0 0 0 0 0 0 0 0 0 0 0 0 0 0 0 0 0 0 0 0 0 0 0 0 0 0 0 0 0 0 0 0 0 0 0 0
-40 0 0 0 0 0 0 0 0 0 0 0 0 0 0 0 0 0 0 0 0 0 0 0 0 0 0 0 0 0 0 0 0 0 0 0 0 0 0 0 0 0 0 0 0 0 0 0 0 0 0 0 0 0
0 0 0 0 0 0 0 0 0 -9 0 0 0 0 0 0 0 0 0 0 0 0 0 0 0 0 0 0 0 0 0 0 0 0 0 0 0 0 0 0 0 0 0 0 0 0 0 0 0 0 0 0 0 0
0 0 0 0 0 0 0 0 0 0 0 0 0 0 0 0 0 0 0 0 0 0 0 0 0 0 0 0 0 0 0 0 0 0 0 0 0 0 0 0 0 0 0 0 0 0 0 0 0 0 0 0 0 0
0 0 0 0 0 0 0 0 0 0 0 0 0 0 0 0 0 0 0 0 0 0 0 0 0 0 0 0 0 0 0 0 0 0 0 0 0 0 0 0 0 0 0 0 0 0 0 0 0 0 0 0 0 0
0 0 0 0 0 0 0 0 0 0 0 0 0 0 0 0 0 0 0 0 0 0 0 0 0 0 0 0 0 0 0 0 0 0 0 0 0 0 0 0 0 0 0 0 0 0 0 0 0 0 0 0 0 0
0 0 -4 0 0 0 0 0 0 0 0 0 0 0 0 0 0 0 0 0 0 0 0 0 0 0 0 0 0 0 0 0 0 0 0 0 0 0 0 0 0 0 0 0 0 0 0 0 0 0 0 0 0 0
Wind_Speed
35 35 35 35 35 35 35 32 32 32 35 33 32 31 29 26 23 22 22 20 21 21 20 21 19 18 16 13 8 2 4 7 6 6 9 10 11 10 13 14 15 16 19 19 22 23 26 17 20 23 22 22 22 24
36 36 37 37 36 36 36 36 33 32 32 36 32 31 30 28 24 22 23 17 14 17 19 18 16 16 18 17 12 6 12 6 3 7 8 11 11 11 12 15 12 16 15 18 16 19 17 15 18 18 19 21 22 23
37 37 38 39 38 37 39 37 35 35 35 37 33 31 31 28 25 24 22 19 18 19 19 20 21 19 17 17 16 13 17 10 7 10 8 10 12 10 12 11 11 11 12 15 17 15 14 15 17 18 19 21 21 22
35 36 38 40 40 38 38 40 38 36 35 36 34 31 31 29 24 23 24 21 19 18 24 24 20 20 21 18 17 16 13 11 8 9 11 11 12 8 10 12 10 11 11 13 14 14 15 13 14 16 19 20 21 22
35 36 36 38 40 40 40 41 39 38 37 36 35 31 30 27 23 21 21 24 22 23 21 23 20 19 17 16 15 13 9 9 10 10 11 11 11 11 12 11 9 6 9 11 14 11 15 14 14 16 18 19 20 21
34 36 37 37 40 41 42 42 43 40 37 36 35 30 29 24 20 22 28 27 22 18 21 20 22 20 17 14 12 12 12 12 12 11 12 11 12 10 11 11 9 6 8 11 14 13 15 16 16 16 17 18 19 21
34 36 39 39 39 42 44 44 45 41 38 36 35 30 28 25 25 29 27 24 20 18 22 23 21 20 20 17 17 16 14 13 13 13 12 11 10 9 11 11 9 6 7 10 13 15 16 14 14 16 17 18 20 21
35 37 40 41 42 43 46 45 46 44 39 35 33 29 26 23 24 30 21 14 18 20 21 24 25 20 19 19 17 17 16 15 16 14 13 10 10 12 12 5 6 7 8 9 10 13 11 13 16 16 16 17 19 21
36 38 40 44 43 45 47 49 47 44 40 34 27 24 25 31 33 30 16 14 16 23 26 25 25 26 17 18 18 17 17 16 17 15 13 11 11 9 8 3 6 8 6 7 8 11 12 12 13 14 15 16 18 20
38 39 40 42 44 46 49 50 49 46 39 27 28 31 38 35 18 16 23 26 27 29 26 28 23 23 20 19 18 15 16 15 16 16 13 14 14 13 6 1 8 10 6 9 8 8 9 10 11 13 14 15 17 18
39 39 40 41 43 44 50 51 49 44 35 32 34 36 29 25 24 28 31 32 31 34 31 27 26 22 22 20 18 18 16 15 19 16 13 16 16 13 4 5 9 9 8 7 6 8 10 12 12 12 13 15 16 17
38 38 39 41 43 41 47 49 47 41 41 35 29 25 27 31 30 35 38 34 35 39 30 30 25 21 18 17 17 17 17 16 19 10 15 19 18 10 4 9 12 11 8 7 7 9 10 12 12 12 14 15 15 17
37 36 36 39 42 44 46 49 45 43 36 32 31 34 37 36 41 49 52 47 44 32 30 27 25 20 18 18 17 17 18 19 9 16 18 15 13 2 6 10 12 11 9 8 8 9 11 11 12 12 13 14 15 16
35 34 36 36 40 44 44 41 41 45 41 41 40 44 44 47 51 49 52 45 35 31 27 27 24 21 19 20 17 19 18 15 21 23 18 15 5 6 9 11 13 14 12 10 10 11 11 12 11 11 12 13 14 15
34 33 35 36 35 39 39 38 39 43 40 42 39 45 44 45 47 43 35 36 34 30 29 25 23 22 22 21 21 18 20 23 21 20 17 13 7 11 12 13 13 13 14 13 12 11 11 10 10 10 11 12 13 14
32 30 24 25 28 33 35 34 36 35 38 40 44 40 40 46 46 43 39 38 33 33 28 26 26 29 29 25 25 27 23 24 20 15 16 7 9 13 13 13 13 13 13 13 12 12 12 10 9 10 11 12 13 13
30 26 25 26 25 31 35 34 35 39 44 44 45 44 42 45 48 43 41 39 34 35 38 32 32 32 22 33 32 26 26 19 15 13 8 6 13 15 13 13 13 12 12 12 13 12 12 10 9 9 10 10 12 13
32 30 30 28 28 29 35 37 37 36 46 46 49 45 43 42 45 41 38 39 38 40 36 35 27 34 34 32 31 25 20 19 18 11 7 8 11 12 14 14 12 12 12 13 12 11 10 10 9 9 9 9 10 11
32 32 32 30 28 28 36 38 35 44 44 48 51 43 42 39 44 41 38 40 36 35 32 32 35 43 39 31 25 21 20 20 17 13 10 9 11 13 12 11 11 11 11 12 12 11 10 10 8 8 8 7 7 8
35 34 33 31 29 29 34 38 31 45 40 46 48 46 44 42 39 43 42 40 39 40 39 46 46 34 33 30 24 21 21 17 15 13 12 12 11 12 13 13 12 10 9 10 9 9 8 7 5 6 6 5 6 6
35 34 33 29 27 30 32 34 38 35 45 46 43 48 45 40 40 44 46 41 43 49 54 46 40 32 26 25 22 20 19 19 18 16 17 15 14 13 12 10 10 10 11 12 11 10 9 8 6 5 4 4 5 6
30 30 28 25 30 30 35 34 37 35 36 42 46 46 51 49 49 47 41 50 55 56 46 42 38 33 28 26 21 19 20 20 17 14 13 15 16 15 14 13 14 13 13 12 11 11 8 7 6 5 4 5 4 5
31 29 30 30 33 35 38 34 39 39 42 45 44 48 49 47 46 38 49 51 50 51 44 39 34 32 30 26 23 22 21 20 19 19 17 16 14 13 13 14 14 14 12 11 10 9 8 8 7 6 5 4 4 3
29 32 34 34 35 35 32 44 42 41 39 41 49 50 49 48 41 47 55 56 51 42 46 41 34 33 29 27 26 24 25 24 21 19 18 17 16 14 13 13 13 12 10 10 10 9 8 8 6 6 6 5 4 2
34 36 35 34 34 36 37 44 48 50 52 44 49 49 45 46 54 54 57 59 54 49 47 44 40 37 35 31 27 26 25 25 25 23 20 18 15 13 12 12 11 11 11 11 11 10 9 8 7 7 6 5 5 3
36 39 39 40 35 37 41 48 51 52 49 47 47 44 45 49 53 59 62 55 58 54 50 47 42 38 36 34 31 30 28 26 25 23 21 20 19 18 17 16 14 13 13 12 12 12 11 10 10 9 8 7 6 4
32 33 32 33 37 39 40 43 44 45 47 47 45 47 50 54 60 54 48 56 55 55 46 44 42 37 34 30 30 28 27 28 27 25 21 20 19 18 17 18 18 15 15 14 13 14 13 13 11 10 8 6 6 5
29 35 41 36 37 39 42 46 54 54 46 39 38 55 57 54 57 52 50 47 46 47 46 43 41 40 35 30 26 25 27 25 21 18 17 18 18 16 14 14 11 12 14 14 14 13 13 12 11 10 9 8 7 6
36 34 34 42 44 42 46 47 52 50 41 39 40 50 50 48 44 44 43 40 38 40 50 48 42 37 32 30 30 29 29 30 30 28 27 25 22 19 15 14 13 12 13 13 14 13 13 12 11 10 10 8 7 5
36 34 40 45 50 53 51 46 51 50 44 42 38 37 40 47 44 34 34 37 42 46 48 42 38 39 39 37 36 33 33 33 32 31 29 27 25 19 19 18 16 14 15 15 13 13 12 10 9 8 7 6 6 6
33 34 41 44 49 51 49 46 46 47 44 45 39 41 45 44 42 38 39 36 33 34 40 44 42 39 41 41 40 38 38 37 34 31 30 23 21 21 20 20 18 17 17 16 15 14 12 12 11 11 11 10 9 8
29 37 39 45 47 41 38 46 48 52 48 44 42 45 47 50 53 43 41 37 38 40 39 36 42 46 42 38 36 36 37 34 31 29 26 23 21 21 20 20 19 18 18 18 16 15 16 14 13 13 12 11 10 9
28 34 36 37 37 40 40 44 46 50 47 48 44 45 50 51 52 47 41 42 42 38 38 31 30 31 35 37 37 36 32 31 31 29 25 22 21 21 21 21 20 20 20 18 17 17 17 16 14 14 13 12 11 9
Wind_Direction
263 260 255 256 255 256 255 258 255 251 242 241 241 240 241 243 245 249 251 260 258 256 257 259 263 259 263 269 287 285 333 321 11 41 30 31 37 51 36 36 33 28 28 30 29 26 24 57 47 36 41 47 45 42
261 260 254 254 255 254 253 254 257 253 251 239 240 240 239 241 242 248 250 257 264 262 261 264 269 274 268 268 278 250 300 341 53 14 30 31 27 40 38 23 42 28 36 29 38 32 44 65 47 54 53 48 47 44
261 261 257 252 252 253 250 250 253 251 247 241 239 239 237 239 241 245 248 247 256 256 262 260 258 267 276 273 276 276 278 299 326 337 23 20 14 32 28 31 37 38 41 33 32 41 51 55 56 57 54 51 53 48
263 261 259 253 250 251 250 249 251 253 249 245 237 238 235 237 238 243 246 245 251 255 253 257 267 264 272 270 271 278 286 295 317 328 350 1 3 28 26 28 27 35 50 34 31 40 48 55 60 62 55 56 54 52
265 262 262 257 249 248 249 246 248 248 248 246 235 236 233 234 234 243 248 246 250 249 257 254 261 270 275 268 269 277 281 286 294 316 334 349 3 14 13 25 14 62 44 37 30 57 43 54 75 73 63 60 59 54
269 263 262 262 252 248 247 245 244 245 247 247 233 232 229 225 225 238 246 248 244 249 255 260 263 260 266 270 268 272 278 283 293 310 325 341 347 2 9 9 30 83 61 44 33 65 41 66 81 76 66 64 63 57
272 266 260 261 258 250 247 244 241 243 247 246 230 227 224 220 227 237 246 250 230 246 253 256 263 260 257 261 264 269 277 281 291 303 320 331 345 352 351 347 21 88 59 44 55 56 46 67 58 81 71 64 61 57
277 271 262 257 259 253 243 240 238 239 243 246 227 219 216 220 231 239 253 240 234 240 252 252 254 256 253 254 259 268 269 277 288 300 314 323 334 333 336 358 42 77 69 70 75 26 62 70 78 77 71 66 55 52
279 274 267 255 259 253 243 235 234 235 238 243 214 202 215 231 233 234 233 243 244 245 245 250 242 247 248 256 259 263 269 272 292 291 298 313 313 315 337 28 128 124 89 97 46 47 70 74 75 73 72 61 51 49
279 274 269 256 258 256 241 231 228 230 242 206 201 223 228 227 206 207 239 238 242 247 249 248 245 246 242 249 254 258 273 275 285 287 303 297 295 293 312 93 146 143 94 104 74 66 81 78 82 77 71 67 59 58
278 274 269 259 258 258 232 224 224 228 208 219 222 228 227 194 224 231 235 234 238 242 241 240 241 236 245 245 249 259 268 276 283 288 289 304 303 299 223 173 154 146 128 122 78 82 99 99 96 82 71 69 66 62
280 275 270 261 259 256 230 226 221 221 218 214 220 223 210 222 231 228 230 235 239 237 234 227 230 237 242 249 257 258 268 275 285 294 292 296 296 304 166 157 153 147 133 116 99 103 101 101 97 86 78 74 71 60
281 277 274 266 257 245 226 222 220 219 212 214 221 223 226 221 225 225 225 229 230 229 223 219 219 234 241 253 260 263 266 270 286 287 293 294 309 275 159 147 145 141 135 123 111 110 107 103 96 90 80 74 69 58
279 281 275 268 254 231 222 223 222 215 217 220 220 226 228 223 226 230 225 225 229 224 207 205 218 238 244 244 260 258 268 274 275 281 279 288 258 171 155 149 146 146 142 135 128 121 116 111 101 88 79 75 65 61
276 281 278 266 239 218 221 223 222 221 223 223 224 227 232 229 229 226 224 218 224 209 200 211 226 241 240 247 254 260 262 267 272 279 288 276 213 170 160 156 152 148 142 138 133 128 123 113 101 86 79 69 63 59
273 276 272 271 231 225 227 229 227 232 229 228 227 231 233 227 224 221 218 218 213 204 209 224 233 238 243 244 248 251 257 267 275 283 273 251 188 171 164 159 156 149 144 139 136 133 127 120 110 95 82 74 71 67
269 262 270 274 260 239 231 228 226 233 228 228 228 230 232 231 225 222 219 215 205 202 215 225 232 238 243 245 246 249 250 262 278 268 260 198 165 164 163 157 155 150 145 142 138 135 131 118 105 97 90 80 77 68
262 265 264 271 267 245 228 226 228 236 228 226 224 226 230 232 224 222 221 205 211 216 216 230 234 239 241 244 240 246 251 259 262 251 234 198 175 172 164 159 158 153 149 145 143 139 133 130 126 117 99 83 73 67
264 264 262 263 263 244 229 227 229 232 234 226 226 231 229 231 227 224 217 210 220 217 221 231 242 240 243 249 249 236 241 246 241 243 228 201 180 169 168 167 163 160 155 151 149 148 145 141 133 119 102 83 74 64
261 260 261 261 259 243 234 229 231 230 234 227 227 226 229 229 226 222 216 216 214 217 229 233 236 247 241 244 246 240 232 226 210 206 203 205 196 180 175 171 170 166 161 153 151 147 145 140 132 124 111 92 79 70
259 257 258 255 252 241 240 232 227 238 233 232 227 221 224 226 224 222 219 220 220 225 228 234 234 239 243 241 237 227 212 197 193 189 188 192 195 191 186 187 178 173 167 162 162 161 162 162 154 143 126 105 94 75
254 258 256 254 246 243 240 236 232 235 237 231 223 221 222 225 223 224 223 223 227 225 230 230 230 228 232 231 229 223 210 215 219 211 199 178 180 184 187 186 179 177 175 172 170 168 169 167 162 152 139 124 103 82
254 253 250 248 245 241 239 233 230 227 232 228 222 221 222 223 223 220 225 228 231 228 229 229 228 227 229 231 229 226 217 207 209 206 195 192 196 193 186 186 185 177 176 180 175 173 173 168 164 154 141 130 116 84
248 243 243 241 237 238 241 228 228 227 234 229 221 222 222 222 221 225 226 225 226 228 225 222 217 221 225 225 224 221 216 217 213 208 201 191 192 198 197 190 186 187 187 174 176 179 175 171 167 156 154 154 143 120
243 238 239 239 235 235 237 226 224 224 227 232 224 223 224 222 223 225 225 224 223 224 222 219 219 219 220 225 225 222 216 207 202 199 206 205 202 201 203 206 204 199 188 187 192 187 187 187 186 173 169 171 167 163
241 235 235 233 234 233 232 226 221 223 228 233 232 224 225 222 222 226 224 221 219 220 220 219 216 220 224 224 215 214 215 212 207 208 207 200 195 191 191 190 194 206 206 204 198 195 195 193 189 181 182 180 176 174
243 235 235 239 234 234 235 230 223 225 228 232 231 221 221 225 225 226 225 220 222 221 222 223 222 219 216 217 222 221 215 212 216 217 217 210 215 216 194 185 191 204 196 199 201 197 193 190 189 187 189 191 181 177
245 235 233 234 234 233 233 230 224 224 231 236 239 224 223 227 225 226 227 223 222 219 220 226 229 230 224 217 211 209 210 212 212 211 216 226 234 232 226 240 231 202 202 199 201 204 204 199 191 192 193 190 183 184
242 241 238 236 236 237 235 231 226 225 231 232 242 230 229 230 230 230 229 223 222 219 220 223 225 225 222 219 217 211 204 203 204 213 214 217 219 225 219 225 216 208 202 202 202 201 199 197 192 189 188 186 184 180
244 241 242 240 237 237 237 236 231 227 232 237 248 246 237 230 230 235 228 221 219 219 215 214 215 215 214 212 214 217 218 215 208 201 206 210 208 213 210 213 201 199 198 195 199 199 192 199 202 207 201 201 193 187
247 241 244 240 240 236 236 236 230 228 232 237 244 242 235 230 229 230 226 224 223 222 216 217 219 218 216 217 216 216 220 225 225 228 238 228 218 206 203 204 201 197 195 196 195 198 201 200 198 195 194 194 191 194
240 237 236 237 237 237 237 231 228 227 230 235 243 240 233 226 223 224 224 221 221 220 220 217 218 220 218 215 215 221 227 223 218 223 218 215 212 210 206 206 202 196 190 193 197 193 188 189 190 190 192 196 191 190
246 238 234 236 235 233 233 225 225 224 227 230 236 234 226 225 223 225 225 223 222 221 223 218 221 219 218 223 224 227 225 220 217 214 212 208 201 200 202 200 199 195 185 193 201 195 190 189 191 190 189 188 188 188